Theta_e
321 320 320 319 319 318 317 315 314 314 313 312 313 314 315 317 317 319 320 320 320 320 320 319 317 316 315 315 314 312 311 312 311 310 309 309 308 307 307 306 306 306
318 317 314 316 315 313 315 315 314 314 313 312 313 312 311 312 315 318 318 318 317 318 318 317 315 315 314 312 311 310 308 309 308 307 308 307 305 306 305 305 304 304
315 314 314 315 315 313 314 313 313 313 312 311 310 309 309 309 311 313 316 317 316 316 315 315 314 314 313 312 308 307 307 307 306 305 306 306 304 304 304 303 303 303
313 314 315 314 314 314 312 311 307 308 305 306 307 307 306 304 307 309 311 308 314 312 312 312 313 312 311 311 309 306 303 304 305 305 304 301 301 302 302 302 302 301
312 312 313 313 312 311 310 310 308 307 308 309 303 303 303 304 305 307 307 306 308 306 305 307 308 308 307 307 307 305 303 302 300 302 300 298 298 300 299 299 297 298
309 311 311 312 310 310 309 310 308 307 306 305 306 303 305 305 305 304 303 302 298 300 299 300 300 299 302 304 303 302 301 298 298 300 299 298 295 295 298 296 296 295
309 309 308 307 307 308 309 308 308 306 308 307 303 303 302 301 301 301 300 298 297 297 298 297 298 294 294 296 297 295 293 294 295 297 296 293 294 293 294 295 295 295
307 306 306 306 307 307 308 307 306 306 304 302 303 297 299 299 297 296 295 296 296 294 293 295 295 293 290 294 294 293 290 294 293 295 294 292 292 293 293 294 294 294
304 303 303 303 304 302 302 301 300 300 301 302 299 295 294 295 294 294 294 294 292 290 290 290 289 286 288 290 290 291 289 289 291 294 294 293 293 293 293 293 293 293
300 299 300 301 301 299 299 298 298 298 298 299 296 296 295 292 294 293 293 291 286 286 286 286 286 286 287 288 289 290 290 290 292 293 293 293 293 293 292 292 291 291
298 299 300 300 299 298 297 296 296 296 296 296 296 294 293 293 291 291 292 292 288 287 286 286 286 287 287 287 288 289 289 289 291 291 291 291 291 290 289 290 290 290
298 299 300 299 298 296 296 295 295 295 294 293 295 294 291 291 292 290 291 289 286 287 286 286 286 286 286 286 286 286 287 288 289 289 289 289 289 289 289 289 288 288
298 298 298 297 296 294 293 293 293 292 293 292 291 292 291 290 289 288 287 287 287 286 286 285 286 286 286 286 286 286 286 286 287 289 289 289 288 288 288 288 288 287
293 293 293 293 292 292 292 291 291 291 290 290 291 291 290 288 286 286 286 286 286 285 285 285 286 286 286 286 286 285 285 286 286 287 287 287 287 288 287 286 285 284
290 290 291 291 291 291 291 291 290 289 289 289 289 288 288 287 286 286 286 286 286 286 286 286 285 285 286 285 285 285 285 285 286 286 286 286 286 286 285 285 284 284
290 290 291 291 291 291 290 289 289 288 288 288 288 287 287 287 287 287 287 287 286 286 285 286 285 285 285 287 287 286 286 285 286 286 286 285 285 284 284 284 284 283
290 290 290 290 290 289 289 289 289 288 288 287 286 286 286 286 287 287 286 286 286 286 286 286 287 288 289 291 289 288 286 285 285 285 285 284 284 284 283 283 283 283
290 290 289 289 289 289 289 288 287 287 286 286 286 286 285 286 286 286 285 285 286 286 286 286 287 290 292 292 291 290 288 286 285 285 284 283 283 283 283 282 282 282
289 290 289 288 288 287 286 286 286 286 286 286 285 285 285 286 285 285 285 285 285 285 285 286 287 291 292 291 291 290 288 286 284 284 284 283 283 282 282 282 283 283
288 287 287 286 285 285 285 286 286 285 285 285 284 285 285 285 284 285 285 285 285 285 285 286 287 290 291 290 290 289 288 286 284 283 283 282 282 282 283 283 283 283
286 285 284 284 284 285 285 285 284 284 284 284 285 285 285 285 284 284 284 284 284 285 286 286 287 291 290 290 289 288 287 285 283 283 283 282 283 283 283 283 283 283
285 284 284 284 284 284 284 284 284 284 284 283 284 283 283 284 284 284 284 284 284 285 285 285 287 290 290 289 289 288 286 283 282 282 282 282 283 283 283 283 283 283
284 284 284 284 284 284 284 283 283 283 283 283 283 283 283 283 283 283 283 283 283 284 284 285 286 288 289 288 288 287 284 281 282 282 282 282 282 283 283 283 283 282
283 284 284 283 283 283 283 283 282 282 282 283 284 283 283 282 282 282 282 282 282 283 285 285 285 286 288 287 287 285 283 281 281 282 282 282 282 283 283 282 282 283
282 282 283 283 283 282 282 282 282 282 281 282 283 282 282 281 281 281 280 280 281 283 284 285 284 285 287 286 286 285 282 280 280 280 280 281 282 281 282 281 281 281
281 281 281 282 281 281 281 281 280 280 281 281 281 281 281 280 280 280 279 279 280 282 283 284 285 285 286 286 285 285 284 279 278 279 280 281 281 281 280 279 279 278
Wind_Speed
11 10 10 9 9 8 8 8 8 8 8 7 7 8 8 9 6 7 7 6 7 7 7 6 6 5 5 5 4 3 3 4 3 3 4 4 4 3 2 2 2 2
11 9 8 7 6 6 7 8 8 8 8 8 7 7 6 5 6 7 7 7 6 6 5 5 5 6 6 5 5 4 3 3 3 2 5 4 2 3 4 4 2 3
7 7 8 9 9 8 8 7 7 7 7 7 6 5 5 5 6 5 6 6 6 5 5 5 5 5 6 7 6 5 4 3 4 3 5 4 4 3 2 2 2 4
8 9 9 8 8 8 7 7 5 5 4 5 6 7 6 5 5 6 5 5 5 5 4 5 5 5 4 6 7 5 4 4 3 4 4 2 1 3 4 5 3 2
9 8 7 7 7 6 6 7 7 6 7 7 4 5 6 6 6 6 5 5 5 4 4 4 4 4 4 5 5 6 5 4 3 4 3 3 2 3 2 3 2 1
6 7 7 7 7 8 7 8 8 8 7 6 7 6 5 6 6 7 6 6 4 5 4 4 5 4 4 5 4 4 5 4 3 5 5 4 3 3 3 3 4 3
8 7 7 6 6 7 8 7 7 7 7 6 6 6 6 7 6 6 7 6 6 5 6 5 6 4 3 5 5 6 5 4 4 4 6 4 5 4 2 4 4 5
6 4 6 6 7 6 6 6 6 6 6 7 7 5 6 7 7 6 5 7 6 6 5 5 5 6 4 5 6 7 4 3 4 5 6 4 3 5 4 4 5 5
5 5 5 5 6 5 5 5 5 5 6 8 7 6 4 6 8 7 7 6 7 6 7 6 7 7 4 6 6 7 7 4 4 6 6 5 5 5 5 4 5 5
5 5 6 6 6 5 6 5 5 5 4 6 6 6 7 5 5 7 6 7 10 7 7 8 7 6 6 5 8 7 8 7 5 6 6 6 6 5 5 5 5 5
6 6 7 7 7 6 7 6 6 6 5 7 7 6 6 7 6 4 7 7 9 9 8 7 7 8 8 6 5 5 8 7 7 6 5 5 6 5 5 5 5 5
7 6 8 8 7 7 7 7 7 6 7 5 7 9 6 5 7 5 6 7 7 7 7 6 5 6 8 8 7 6 6 6 6 6 6 6 5 5 5 4 5 4
6 6 7 7 7 7 6 6 7 6 6 7 5 7 8 7 5 8 5 9 7 7 7 7 7 7 7 7 6 6 7 7 7 6 6 6 5 5 5 5 4 4
4 4 5 6 6 6 6 6 7 6 6 6 6 7 7 8 9 10 6 8 8 8 6 7 8 7 6 6 6 7 7 7 7 8 7 6 6 5 4 4 5 5
5 5 6 6 6 7 7 7 7 7 6 6 7 7 7 9 9 10 11 9 7 8 7 6 7 7 6 7 8 6 6 7 7 7 6 6 6 6 5 5 5 5
6 5 6 6 6 7 7 7 7 7 7 7 7 7 7 7 7 7 8 8 8 6 6 6 5 4 6 10 8 8 8 7 7 6 5 5 7 7 6 6 6 5
6 6 6 7 6 7 7 8 8 7 7 7 7 7 8 7 8 8 7 7 8 7 7 6 5 5 11 12 12 13 9 8 9 7 6 6 6 6 7 6 6 6
7 7 7 7 7 8 7 7 7 7 7 7 7 8 7 7 8 7 7 7 7 7 7 6 6 8 11 12 13 12 9 8 7 7 7 6 6 7 6 6 6 6
7 7 7 7 6 6 6 6 7 7 7 8 8 7 7 8 7 8 7 6 7 8 7 6 6 10 12 12 12 13 13 10 7 7 8 7 6 6 6 6 5 6
5 6 6 5 5 6 6 7 7 7 6 6 7 7 8 8 7 8 7 7 7 8 7 6 6 10 12 12 12 13 13 10 8 8 8 7 7 6 6 6 5 5
5 6 7 6 6 6 7 7 7 7 7 6 7 7 8 8 9 8 7 7 7 7 8 7 6 11 11 13 13 14 14 10 8 8 7 7 6 6 6 5 4 4
7 8 8 7 7 7 8 8 7 8 8 6 7 7 6 7 6 7 8 8 6 7 8 8 6 11 11 13 14 14 13 8 7 7 7 6 6 5 5 4 3 3
8 9 9 9 8 8 8 8 8 8 6 6 8 7 8 7 7 6 6 7 7 6 8 7 6 9 11 12 12 13 9 7 7 6 6 7 6 4 4 3 3 2
7 8 9 8 7 8 8 7 6 5 6 6 9 9 8 7 7 7 6 5 6 6 6 8 7 8 11 11 11 11 8 7 6 7 6 5 6 5 3 3 3 3
5 6 7 8 8 7 8 9 8 8 6 6 6 7 8 7 7 8 7 5 5 7 8 9 8 8 12 11 11 10 7 5 6 6 6 5 4 5 4 3 2 1
5 6 6 7 8 7 7 7 7 7 7 8 7 7 8 7 7 7 8 6 5 6 6 6 8 6 8 12 11 10 9 6 5 6 6 6 5 4 4 3 2 0
Wind_Direction
206 202 204 200 203 199 189 187 191 194 198 190 190 200 199 208 194 193 196 189 191 196 195 192 184 179 167 161 164 163 174 186 173 158 167 169 191 165 164 171 167 169
204 198 197 193 194 192 193 188 190 193 197 192 198 194 201 188 194 188 186 187 186 189 181 174 168 165 151 146 136 131 119 135 143 158 146 137 126 140 167 156 151 133
190 188 188 192 194 191 191 192 190 195 192 197 189 183 186 187 177 188 182 179 179 179 175 169 165 163 162 143 127 126 142 138 151 159 123 138 158 136 97 115 140 162
191 192 192 195 190 189 189 182 187 182 173 160 190 191 172 172 166 174 173 168 172 183 177 165 171 167 169 141 137 138 151 165 157 148 147 135 113 144 158 160 162 149
190 191 191 191 192 186 173 179 183 181 184 188 161 150 153 157 165 163 163 169 169 172 162 157 144 147 132 122 140 139 140 148 133 130 119 105 83 96 77 101 104 102
193 189 188 187 184 175 178 186 185 181 175 166 179 163 163 157 154 154 157 157 154 150 136 126 118 108 124 129 110 114 123 124 130 113 105 111 95 67 104 98 99 98
186 182 183 175 169 177 178 185 180 176 174 166 135 162 150 148 148 153 151 147 145 145 142 143 133 119 103 121 112 104 84 119 120 128 115 100 108 88 91 112 110 89
177 173 166 162 168 172 174 171 165 164 152 143 156 152 154 141 140 136 140 143 140 134 125 122 113 104 115 116 115 108 102 100 132 115 110 113 100 98 84 94 115 115
156 159 154 159 156 157 152 153 150 144 152 147 140 135 117 135 139 138 138 131 123 123 119 115 108 107 116 115 119 129 125 114 121 117 124 130 115 117 117 116 89 88
145 143 143 145 147 150 150 148 144 140 134 123 124 125 123 111 114 125 127 127 88 89 86 109 101 93 96 108 125 133 128 127 121 115 120 120 122 115 97 89 99 86
142 148 142 142 140 141 139 135 131 124 117 125 121 107 112 115 101 110 113 116 114 113 109 96 108 113 101 99 111 123 132 129 125 118 109 103 96 97 99 96 88 101
145 143 143 141 138 134 135 130 127 124 121 110 124 121 105 102 115 97 112 112 85 96 96 98 97 99 87 106 98 97 97 108 110 110 109 105 99 92 88 85 104 103
144 141 137 134 131 125 121 118 116 119 119 119 114 118 121 113 99 100 82 104 96 81 87 98 97 84 102 115 112 94 83 95 111 106 99 90 87 93 98 111 116 114
119 119 114 110 110 112 111 111 111 106 105 108 111 107 111 118 108 100 94 84 86 88 101 107 109 105 103 103 101 109 112 91 95 100 113 115 117 115 108 96 90 90
107 99 105 109 115 115 113 110 108 109 107 103 99 102 101 109 99 114 113 100 92 100 104 105 102 115 128 133 130 123 111 115 120 124 124 119 108 94 79 77 74 70
114 114 115 116 114 113 113 114 113 112 110 108 110 116 122 128 120 116 117 122 119 110 103 104 112 123 140 136 129 123 113 109 111 116 117 114 111 101 84 74 71 70
125 125 127 122 124 120 124 123 123 123 119 118 121 123 123 121 115 112 113 116 117 118 111 107 110 122 127 122 121 120 119 119 118 113 108 104 100 100 96 84 73 67
138 137 133 134 135 134 132 128 123 119 117 118 118 113 110 110 108 114 114 114 110 108 106 109 110 112 113 117 120 123 124 120 117 114 108 99 96 93 93 89 83 78
139 136 131 130 127 122 119 116 115 111 116 121 119 122 118 114 120 115 114 113 114 113 108 105 102 110 110 111 111 114 116 113 109 108 103 101 97 95 96 96 99 97
122 122 120 117 115 117 119 120 121 122 121 118 120 118 115 115 113 114 115 113 115 114 110 105 102 113 111 111 112 111 111 106 104 100 97 94 90 89 92 95 96 104
125 122 122 124 127 127 125 123 123 123 124 128 126 126 128 129 129 122 118 117 115 113 108 103 109 116 112 111 110 109 105 100 99 96 95 90 88 89 91 91 95 104
142 138 138 140 139 136 134 133 134 136 133 127 114 105 102 108 103 111 121 118 115 112 107 104 107 114 110 109 109 108 105 98 103 101 103 104 99 99 98 99 102 105
154 149 150 149 147 142 140 140 137 129 123 126 118 122 124 120 120 114 115 117 114 111 109 106 102 109 108 109 110 111 106 103 107 107 105 107 105 107 109 98 93 86
154 150 147 145 144 144 140 134 123 118 132 141 134 134 124 123 121 110 96 99 110 110 113 112 107 105 108 108 111 114 115 117 118 113 111 113 121 118 114 113 91 68
135 136 140 142 144 145 144 143 144 141 135 120 116 114 117 119 115 110 103 89 93 107 108 109 112 110 108 110 112 114 112 116 119 117 121 128 130 127 124 103 92 64
136 139 145 149 146 139 138 135 131 128 131 122 115 118 120 116 111 111 112 107 104 104 102 105 115 118 123 120 118 118 119 115 121 122 131 137 133 130 126 117 120 342